IZ7XUV Weather Reports


time (UTC)temp
C
wind
direction
speed
KPH
gust
KPH
rain 1hr
cm
rain 24hr
cm
rain mn
cm
humidity
%
barometer
mb
20260507224110 15 144 4.8 9.7 0.00 0.97 0.00 60 1014.7
20260507223122 15 133 4.8 6.4 0.00 0.97 0.00 61 1014.7
20260507222051 15 132 4.8 9.7 0.00 0.97 0.00 62 1014.7
20260507221101 15 152 6.4 9.7 0.00 0.97 0.00 61 1014.6
20260507220031 15 140 4.8 9.7 0.00 0.97 0.00 62 1014.8
20260507215021 16 143 4.8 9.7 0.00 0.97 0.97 61 1014.8
20260507214112 16 131 3.2 9.7 0.00 0.97 0.97 60 1014.7
20260507213102 16 133 3.2 4.8 0.00 0.97 0.97 59 1014.8
20260507212052 16 121 3.2 6.4 0.00 0.97 0.97 56 1014.9
20260507211042 16 109 4.8 6.4 0.00 0.97 0.97 56 1014.9
20260507210032 17 141 4.8 9.7 0.00 0.97 0.97 54 1014.9
20260507205021 17 115 6.4 11.3 0.00 0.97 0.97 53 1014.9
20260507204113 17 132 3.2 6.4 0.00 0.97 0.97 54 1015.0
20260507203123 17 163 1.6 3.2 0.00 0.97 0.97 56 1015.2
20260507202053 17 48 1.6 3.2 0.00 0.97 0.97 55 1015.4
20260507201043 17 177 1.6 4.8 0.00 0.97 0.97 55 1015.5
20260507200133 17 128 1.6 6.4 0.00 0.97 0.97 54 1015.5
20260507195022 17 126 4.8 12.9 0.00 0.97 0.97 53 1015.3
20260507194114 17 147 8.0 14.5 0.00 0.97 0.97 52 1015.4
20260507193104 17 130 4.8 12.9 0.00 0.97 0.97 52 1015.2
20260507192054 17 128 6.4 12.9 0.00 0.97 0.97 51 1015.2
20260507191044 18 135 3.2 9.7 0.00 0.97 0.97 49 1015.0
20260507190034 18 111 4.8 11.3 0.00 0.97 0.97 46 1015.2
20260507185024 18 124 4.8 11.3 0.00 0.97 0.97 45 1014.9
20260507184114 18 110 6.4 9.7 0.00 0.97 0.97 45 1015.0
20260507183105 18 127 4.8 6.4 0.00 0.97 0.97 45 1014.9
20260507182055 18 128 4.8 9.7 0.00 0.97 0.97 44 1014.8
20260507181045 18 146 4.8 6.4 0.00 0.97 0.97 44 1014.7
20260507180035 19 137 3.2 9.7 0.00 0.97 0.97 43 1014.6
20260507175024 19 119 4.8 11.3 0.00 0.97 0.97 42 1014.7
20260507174116 20 100 3.2 6.4 0.00 0.97 0.97 42 1014.7
20260507173126 20 155 4.8 12.9 0.00 0.97 0.97 41 1014.5
20260507172056 20 136 6.4 12.9 0.00 0.97 0.97 41 1014.5
20260507171046 20 140 8.0 14.5 0.00 0.97 0.97 40 1014.5
20260507170056 21 127 6.4 14.5 0.00 0.97 0.97 39 1014.3
20260507165026 21 145 4.8 16.1 0.00 0.97 0.97 39 1014.4
20260507164016 21 129 8.0 14.5 0.00 0.97 0.97 38 1014.4
20260507163107 21 153 9.7 16.1 0.00 0.97 0.97 38 1014.4
20260507162057 22 139 4.8 11.3 0.00 0.97 0.97 40 1014.4
20260507161107 22 105 4.8 9.7 0.00 0.97 0.97 40 1014.4
20260507160037 22 168 4.8 11.3 0.00 0.97 0.97 37 1014.4
20260507155027 22 147 6.4 12.9 0.00 0.97 0.97 36 1014.4
20260507154017 22 149 6.4 14.5 0.00 0.97 0.97 36 1014.3
20260507153108 22 160 9.7 14.5 0.00 0.97 0.97 35 1014.3
20260507152058 22 175 4.8 12.9 0.00 0.97 0.97 37 1014.2
20260507151048 22 142 4.8 12.9 0.00 0.97 0.97 36 1014.3
20260507150037 22 145 6.4 14.5 0.00 0.97 0.97 39 1014.3
20260507145028 22 146 8.0 14.5 0.00 0.97 0.97 40 1014.4
20260507144037 22 161 4.8 11.3 0.00 0.97 0.97 40 1014.4
20260507143109 22 188 4.8 17.7 0.00 0.97 0.97 40 1014.5
20260507142059 22 173 12.9 22.5 0.00 0.97 0.97 39 1014.6
20260507141048 23 166 6.4 17.7 0.00 0.97 0.97 41 1014.4
20260507140039 23 151 16.1 27.4 0.00 0.97 0.97 41 1014.4
20260507135029 23 147 8.0 17.7 0.00 0.97 0.97 45 1014.3
20260507134018 23 135 6.4 11.3 0.00 0.97 0.97 46 1014.7
20260507133110 23 140 9.7 20.9 0.00 0.97 0.97 47 1014.5
20260507132120 23 112 9.7 22.5 0.00 0.97 0.97 50 1014.6
20260507131050 23 161 11.3 22.5 0.00 0.97 0.97 53 1014.5
20260507130040 22 149 8.0 16.1 0.00 0.97 0.97 56 1014.8
20260507125030 23 194 8.0 16.1 0.00 0.97 0.97 57 1014.8
20260507124020 23 164 6.4 17.7 0.00 0.97 0.97 58 1015.1
20260507123152 23 211 8.0 16.1 0.00 0.97 0.97 61 1014.9
20260507122101 23 132 9.7 20.9 0.00 0.97 0.97 60 1015.0
20260507121051 22 194 8.0 17.7 0.00 0.97 0.97 60 1014.9
20260507120041 23 191 8.0 20.9 0.00 0.97 0.97 59 1015.1
20260507115031 22 185 12.9 25.7 0.00 0.97 0.97 60 1015.1
20260507114021 22 185 11.3 24.1 0.00 0.97 0.97 61 1015.0
20260507113113 22 189 11.3 27.4 0.00 0.97 0.97 61 1015.2
20260507112102 22 192 9.7 22.5 0.00 0.97 0.97 62 1015.4
20260507111052 22 243 8.0 17.7 0.00 0.97 0.97 63 1015.4
20260507105032 22 123 4.8 24.1 0.00 0.97 0.97 63 1015.2
20260507104022 21 151 16.1 27.4 0.00 0.97 0.97 64 1015.3
20260507102527 21 139 14.5 33.8 0.00 0.97 0.97 66 1015.3
20260507101517 21 187 19.3 40.2 0.00 0.97 0.97 67 1015.5
20260507100609 21 194 14.5 30.6 0.00 0.97 0.97 68 1015.5
20260507095619 21 168 14.5 35.4 0.00 0.97 0.97 70 1015.5
20260507094549 20 186 20.9 37.0 0.00 0.97 0.97 71 1015.5
20260507093539 20 195 14.5 33.8 0.00 0.97 0.97 73 1015.4
20260507092528 20 191 14.5 38.6 0.00 0.97 0.97 73 1015.2
20260507091518 20 174 14.5 37.0 0.00 0.97 0.97 74 1015.0
20260507090610 20 173 14.5 33.8 0.00 0.97 0.97 75 1014.7
20260507085600 20 185 16.1 29.0 0.00 0.97 0.97 76 1014.5
20260507084549 19 175 16.1 38.6 0.00 0.97 0.97 77 1014.5
20260507083559 18 176 16.1 33.8 0.00 0.97 0.97 79 1014.4
20260507082550 18 151 12.9 27.4 0.00 0.97 0.97 79 1014.5
20260507081519 18 187 14.5 29.0 0.00 0.97 0.97 80 1014.4
20260507080610 18 177 17.7 29.0 0.00 0.97 0.97 80 1014.7
20260507075601 18 169 12.9 24.1 0.00 0.97 0.97 81 1014.8
20260507074551 18 169 12.9 29.0 0.00 0.97 0.97 81 1015.0
20260507073601 17 164 11.3 25.7 0.00 0.97 0.97 81 1015.1
20260507072530 17 184 11.3 30.6 0.00 0.97 0.97 82 1015.3
20260507071521 17 168 11.3 24.1 0.00 0.97 0.97 84 1015.5
20260507070631 16 130 8.0 17.7 0.00 0.97 0.97 87 1015.6
20260507065601 16 141 8.0 20.9 0.00 0.97 0.97 90 1015.5
20260507064551 16 113 8.0 16.1 0.00 0.97 0.97 91 1015.2
20260507063601 16 135 9.7 20.9 0.03 0.97 0.97 92 1015.2
20260507062531 16 135 12.9 27.4 0.03 0.97 0.97 93 1015.3
20260507061522 16 136 9.7 24.1 0.05 0.97 0.97 93 1015.4
20260507060612 16 140 16.1 27.4 0.05 0.97 0.97 93 1015.6
20260507055603 16 121 14.5 29.0 0.08 0.97 0.97 93 1015.8
20260507054553 16 134 9.7 20.9 0.10 0.97 0.97 93 1016.1
20260507053602 16 147 9.7 17.7 0.08 0.94 0.94 93 1016.1
20260507052532 16 156 8.0 12.9 0.10 0.94 0.94 93 1016.4
20260507051523 16 132 8.0 17.7 0.10 0.91 0.91 93 1016.4
20260507050613 16 133 11.3 17.7 0.13 0.91 0.91 93 1016.5
20260507045603 16 133 4.8 12.9 0.18 0.89 0.89 93 1016.7
20260507044553 16 128 8.0 14.5 0.23 0.86 0.86 93 1016.3
20260507043543 16 159 6.4 12.9 0.33 0.86 0.86 93 1016.2
20260507042533 15 144 3.2 11.3 0.38 0.84 0.84 93 1016.3
20260507041522 15 140 6.4 12.9 0.38 0.81 0.81 93 1016.3
20260507040613 15 137 4.8 9.7 0.41 0.79 0.79 92 1016.4
20260507035604 15 182 4.8 14.5 0.36 0.71 0.71 92 1016.4
20260507034613 15 178 4.8 12.9 0.33 0.64 0.64 92 1016.3
20260507033543 15 180 6.4 14.5 0.28 0.53 0.53 92 1016.4
20260507032534 15 181 6.4 17.7 0.25 0.46 0.46 92 1016.4
20260507031543 15 158 6.4 12.9 0.25 0.43 0.43 92 1016.1
20260507030614 15 181 3.2 9.7 0.23 0.38 0.38 91 1015.8
20260507025604 16 177 3.2 6.4 0.23 0.36 0.36 90 1015.7
20260507024554 16 289 0.0 1.6 0.18 0.30 0.30 90 1015.4
20260507023544 16 262 1.6 4.8 0.15 0.25 0.25 89 1015.5
20260507022534 16 150 3.2 4.8 0.10 0.20 0.20 88 1015.4
20260507021524 16 252 0.0 6.4 0.10 0.18 0.18 88 1015.5
20260507020615 16 139 8.0 12.9 0.08 0.15 0.15 87 1015.2
20260507015605 16 137 6.4 11.3 0.05 0.13 0.13 88 1015.2
20260507014555 16 131 4.8 6.4 0.08 0.13 0.13 88 1015.2
20260507013625 16 178 4.8 9.7 0.08 0.10 0.10 88 1015.1
20260507012535 16 201 1.6 4.8 0.08 0.10 0.10 88 1015.2
20260507011525 16 79 3.2 6.4 0.05 0.08 0.08 88 1015.2
20260507010615 16 95 3.2 6.4 0.08 0.08 0.08 87 1015.1
20260507005606 16 122 6.4 11.3 0.08 0.08 0.08 86 1015.1
20260507004556 16 151 4.8 9.7 0.05 0.05 0.05 86 1015.2
20260507003546 17 117 3.2 9.7 0.03 0.03 0.03 85 1015.1
20260507002536 17 142 1.6 3.2 0.03 0.03 0.03 84 1015.2
20260507001526 17 245 0.0 3.2 0.03 0.03 0.03 82 1015.2
20260507000516 17 218 1.6 4.8 0.00 0.00 0.00 80 1015.1
20260506235607 17 147 1.6 4.8 0.00 0.00 0.00 77 1015.0
20260506234637 17 290 0.0 1.6 0.00 0.00 0.00 74 1014.9
20260506233607 18 246 0.0 1.6 0.00 0.00 0.00 72 1015.0
20260506232537 18 217 3.2 6.4 0.00 0.00 0.00 71 1015.1
20260506231547 18 227 1.6 4.8 0.00 0.00 0.00 69 1015.2
20260506230517 18 225 1.6 6.4 0.00 0.00 0.00 68 1015.0
20260506225608 18 252 4.8 12.9 0.00 0.00 0.00 68 1015.0
20260506224600 18 256 3.2 12.9 0.00 0.00 0.00 68 1015.0